| time (UTC) | temp F | wind direction | speed MPH | gust MPH | rain 1hr in | rain 24hr in | rain mn in | humidity % | barometer mb |
| 20260831005253 | 70 | 157 | 2.0 | 7.0 | 0.00 | 1.01 | 1.01 | 92 | 1016.4 |
| 20260831004253 | 70 | 160 | 2.0 | 5.0 | 0.00 | 1.01 | 1.01 | 92 | 1016.3 |
| 20260831003256 | 70 | 140 | 2.0 | 5.0 | 0.00 | 1.01 | 1.01 | 92 | 1016.2 |
| 20260831002257 | 70 | 145 | 2.0 | 4.0 | 0.00 | 1.01 | 1.01 | 92 | 1016.4 |
| 20260831001249 | 70 | 190 | 2.0 | 5.0 | 0.00 | 1.01 | 1.01 | 92 | 1016.3 |
| 20260831000251 | 70 | 155 | 2.0 | 5.0 | 0.00 | 1.01 | 1.01 | 92 | 1016.2 |
| 20260830235249 | 70 | 148 | 4.0 | 7.0 | 0.00 | 1.01 | 1.01 | 91 | 1016.2 |
| 20260830234250 | 70 | 136 | 2.0 | 7.0 | 0.00 | 1.01 | 1.01 | 91 | 1016.4 |
| 20260830233247 | 70 | 158 | 4.0 | 11.0 | 0.00 | 1.01 | 1.01 | 91 | 1016.4 |
| 20260830232247 | 70 | 140 | 4.0 | 9.0 | 0.00 | 1.01 | 1.01 | 91 | 1016.4 |
| 20260830231246 | 70 | 142 | 2.0 | 5.0 | 0.00 | 1.01 | 1.01 | 90 | 1016.5 |
| 20260830230243 | 70 | 146 | 4.0 | 7.0 | 0.00 | 1.01 | 1.01 | 90 | 1016.7 |
| 20260830225241 | 70 | 156 | 2.0 | 7.0 | 0.00 | 1.01 | 1.01 | 90 | 1016.9 |
| 20260830224242 | 70 | 207 | 0.0 | 0.0 | 0.00 | 1.01 | 1.01 | 90 | 1017.0 |
| 20260830223240 | 70 | 207 | 0.0 | 2.0 | 0.00 | 1.01 | 1.01 | 90 | 1017.1 |
| 20260830222243 | 70 | 207 | 2.0 | 5.0 | 0.00 | 1.01 | 1.01 | 90 | 1017.0 |
| 20260830221242 | 70 | 164 | 2.0 | 7.0 | 0.00 | 1.01 | 1.01 | 90 | 1017.2 |
| 20260830220243 | 70 | 171 | 2.0 | 5.0 | 0.00 | 1.01 | 1.01 | 91 | 1017.0 |
| 20260830215245 | 70 | 153 | 0.0 | 0.0 | 0.00 | 1.01 | 1.01 | 91 | 1016.9 |
| 20260830214247 | 70 | 159 | 0.0 | 4.0 | 0.00 | 1.01 | 1.01 | 92 | 1016.8 |
| 20260830213241 | 70 | 198 | 4.0 | 7.0 | 0.00 | 1.01 | 1.01 | 92 | 1017.1 |
| 20260830212242 | 70 | 149 | 2.0 | 5.0 | 0.00 | 1.01 | 1.01 | 92 | 1016.9 |
| 20260830211236 | 70 | 153 | 2.0 | 9.0 | 0.00 | 1.01 | 1.01 | 92 | 1016.8 |
| 20260830210238 | 70 | 188 | 4.0 | 7.0 | 0.00 | 1.01 | 1.01 | 92 | 1016.6 |
| 20260830205238 | 70 | 188 | 0.0 | 7.0 | 0.00 | 1.01 | 1.01 | 93 | 1016.6 |
| 20260830204235 | 70 | 141 | 2.0 | 4.0 | 0.00 | 1.01 | 1.01 | 92 | 1016.6 |
| 20260830203235 | 70 | 141 | 2.0 | 9.0 | 0.00 | 1.01 | 1.01 | 92 | 1016.5 |
| 20260830202235 | 70 | 169 | 4.0 | 9.0 | 0.00 | 1.01 | 1.01 | 93 | 1016.5 |
| 20260830201232 | 70 | 186 | 2.0 | 7.0 | 0.00 | 1.01 | 1.01 | 93 | 1016.7 |
| 20260830200230 | 69 | 143 | 2.0 | 5.0 | 0.00 | 1.01 | 1.01 | 93 | 1016.7 |
| 20260830195233 | 69 | 154 | 2.0 | 5.0 | 0.00 | 1.01 | 1.01 | 94 | 1016.7 |
| 20260830194226 | 69 | 186 | 2.0 | 7.0 | 0.00 | 1.01 | 1.01 | 94 | 1016.8 |
| 20260830193226 | 69 | 142 | 4.0 | 7.0 | 0.00 | 1.01 | 1.01 | 94 | 1016.6 |
| 20260830192224 | 69 | 153 | 2.0 | 5.0 | 0.00 | 1.01 | 1.01 | 95 | 1016.8 |
| 20260830191223 | 69 | 157 | 2.0 | 7.0 | 0.00 | 1.01 | 1.01 | 95 | 1016.7 |
| 20260830190222 | 69 | 146 | 0.0 | 0.0 | 0.00 | 1.01 | 1.01 | 96 | 1017.0 |
| 20260830185228 | 68 | 159 | 0.0 | 4.0 | 0.00 | 1.01 | 1.01 | 95 | 1016.9 |
| 20260830184224 | 68 | 159 | 2.0 | 4.0 | 0.00 | 1.01 | 1.01 | 95 | 1017.2 |
| 20260830183222 | 68 | 159 | 0.0 | 0.0 | 0.00 | 1.01 | 1.01 | 95 | 1017.5 |
| 20260830182233 | 68 | 159 | 0.0 | 4.0 | 0.00 | 1.01 | 1.01 | 95 | 1017.4 |
| 20260830181227 | 67 | 159 | 0.0 | 4.0 | 0.00 | 1.01 | 1.01 | 95 | 1017.2 |
| 20260830180218 | 67 | 159 | 2.0 | 7.0 | 0.01 | 1.01 | 1.01 | 95 | 1017.1 |
| 20260830175216 | 67 | 170 | 4.0 | 9.0 | 0.01 | 1.01 | 1.01 | 95 | 1017.2 |
| 20260830173216 | 67 | 170 | 2.0 | 7.0 | 0.02 | 1.01 | 1.01 | 95 | 1017.3 |
| 20260830172219 | 67 | 149 | 4.0 | 5.0 | 0.03 | 1.01 | 1.01 | 95 | 1017.2 |
| 20260830171219 | 67 | 200 | 4.0 | 9.0 | 0.07 | 1.01 | 1.01 | 96 | 1017.1 |
| 20260830170218 | 66 | 146 | 2.0 | 5.0 | 0.15 | 1.00 | 1.00 | 96 | 1017.6 |
| 20260830165219 | 66 | 176 | 2.0 | 9.0 | 0.17 | 1.00 | 1.00 | 95 | 1018.1 |
| 20260830164214 | 66 | 162 | 4.0 | 9.0 | 0.20 | 1.00 | 1.00 | 95 | 1017.9 |
| 20260830163211 | 66 | 198 | 4.0 | 12.0 | 0.22 | 0.99 | 0.99 | 95 | 1018.1 |
| 20260830162210 | 66 | 192 | 5.0 | 12.0 | 0.22 | 0.98 | 0.98 | 95 | 1018.0 |
| 20260830161210 | 66 | 194 | 5.0 | 12.0 | 0.19 | 0.94 | 0.94 | 95 | 1018.3 |
| 20260830160214 | 66 | 174 | 4.0 | 12.0 | 0.13 | 0.85 | 0.85 | 95 | 1018.9 |
| 20260830155212 | 66 | 186 | 2.0 | 9.0 | 0.12 | 0.83 | 0.83 | 95 | 1019.1 |
| 20260830154212 | 66 | 167 | 4.0 | 7.0 | 0.11 | 0.80 | 0.80 | 95 | 1018.7 |
| 20260830153212 | 66 | 211 | 4.0 | 7.0 | 0.10 | 0.77 | 0.78 | 95 | 1018.8 |
| 20260830152208 | 66 | 209 | 4.0 | 9.0 | 0.11 | 0.76 | 0.76 | 95 | 1019.1 |
| 20260830151209 | 66 | 202 | 2.0 | 7.0 | 0.14 | 0.75 | 0.75 | 95 | 1019.3 |
| 20260830150211 | 66 | 221 | 0.0 | 2.0 | 0.16 | 0.72 | 0.72 | 95 | 1019.3 |
| 20260830145211 | 66 | 221 | 0.0 | 4.0 | 0.21 | 0.71 | 0.71 | 95 | 1019.5 |
| 20260830144205 | 66 | 221 | 0.0 | 5.0 | 0.24 | 0.69 | 0.69 | 95 | 1019.5 |
| 20260830143205 | 66 | 182 | 2.0 | 7.0 | 0.27 | 0.67 | 0.67 | 95 | 1019.2 |
| 20260830142205 | 66 | 182 | 0.0 | 5.0 | 0.31 | 0.65 | 0.65 | 95 | 1019.4 |
| 20260830141205 | 66 | 213 | 2.0 | 5.0 | 0.33 | 0.61 | 0.61 | 95 | 1019.3 |
| 20260830140208 | 66 | 192 | 0.0 | 4.0 | 0.34 | 0.56 | 0.57 | 95 | 1019.1 |
| 20260830135206 | 66 | 194 | 2.0 | 7.0 | 0.31 | 0.50 | 0.51 | 94 | 1019.1 |
| 20260830134202 | 67 | 200 | 2.0 | 9.0 | 0.29 | 0.45 | 0.46 | 95 | 1019.2 |
| 20260830133202 | 67 | 210 | 0.0 | 5.0 | 0.26 | 0.40 | 0.40 | 95 | 1019.3 |
| 20260830132158 | 67 | 208 | 0.0 | 4.0 | 0.22 | 0.33 | 0.34 | 95 | 1019.2 |
| 20260830131157 | 67 | 292 | 0.0 | 4.0 | 0.20 | 0.28 | 0.28 | 95 | 1019.3 |
| 20260830130158 | 67 | 192 | 0.0 | 5.0 | 0.16 | 0.22 | 0.23 | 94 | 1018.8 |
| 20260830125159 | 67 | 184 | 0.0 | 2.0 | 0.14 | 0.19 | 0.19 | 94 | 1018.8 |
| 20260830124157 | 67 | 183 | 2.0 | 5.0 | 0.11 | 0.16 | 0.17 | 94 | 1019.0 |
| 20260830123155 | 68 | 193 | 2.0 | 5.0 | 0.09 | 0.14 | 0.14 | 94 | 1019.1 |
| 20260830122201 | 68 | 188 | 2.0 | 9.0 | 0.07 | 0.11 | 0.11 | 95 | 1019.5 |
| 20260830121155 | 68 | 187 | 0.0 | 5.0 | 0.04 | 0.08 | 0.08 | 95 | 1019.4 |
| 20260830120157 | 68 | 180 | 2.0 | 4.0 | 0.02 | 0.06 | 0.06 | 95 | 1019.0 |
| 20260830115156 | 67 | 163 | 0.0 | 0.0 | 0.01 | 0.05 | 0.05 | 94 | 1019.0 |
| 20260830114158 | 67 | 163 | 0.0 | 0.0 | 0.01 | 0.05 | 0.05 | 94 | 1019.2 |
| 20260830113158 | 67 | 163 | 0.0 | 0.0 | 0.01 | 0.05 | 0.05 | 94 | 1018.4 |
| 20260830112152 | 67 | 163 | 0.0 | 0.0 | 0.00 | 0.04 | 0.04 | 94 | 1017.8 |
| 20260830111152 | 67 | 163 | 0.0 | 0.0 | 0.00 | 0.04 | 0.04 | 94 | 1017.8 |
| 20260830110156 | 67 | 163 | 0.0 | 0.0 | 0.00 | 0.04 | 0.04 | 94 | 1017.8 |
| 20260830105150 | 67 | 163 | 0.0 | 0.0 | 0.00 | 0.04 | 0.04 | 94 | 1017.8 |
| 20260830104153 | 67 | 163 | 0.0 | 0.0 | 0.01 | 0.04 | 0.04 | 94 | 1017.8 |
| 20260830103150 | 67 | 163 | 0.0 | 2.0 | 0.02 | 0.04 | 0.04 | 94 | 1017.7 |
| 20260830102150 | 67 | 163 | 0.0 | 2.0 | 0.02 | 0.04 | 0.04 | 94 | 1017.9 |
| 20260830101152 | 67 | 178 | 0.0 | 2.0 | 0.02 | 0.04 | 0.04 | 94 | 1018.0 |
| 20260830100150 | 68 | 147 | 0.0 | 0.0 | 0.02 | 0.04 | 0.04 | 93 | 1017.8 |
| 20260830095147 | 68 | 147 | 0.0 | 0.0 | 0.02 | 0.04 | 0.04 | 93 | 1017.8 |
| 20260830094149 | 68 | 147 | 0.0 | 4.0 | 0.02 | 0.03 | 0.03 | 93 | 1017.9 |
| 20260830093149 | 68 | 206 | 0.0 | 4.0 | 0.02 | 0.02 | 0.02 | 93 | 1018.4 |
| 20260830092148 | 68 | 180 | 0.0 | 4.0 | 0.02 | 0.02 | 0.02 | 93 | 1018.3 |
| 20260830091149 | 68 | 180 | 0.0 | 2.0 | 0.02 | 0.02 | 0.02 | 93 | 1018.2 |
| 20260830090150 | 68 | 180 | 0.0 | 0.0 | 0.02 | 0.02 | 0.02 | 93 | 1018.4 |
| 20260830085151 | 68 | 180 | 0.0 | 0.0 | 0.02 | 0.02 | 0.02 | 92 | 1018.4 |
| 20260830084149 | 68 | 180 | 0.0 | 0.0 | 0.01 | 0.01 | 0.01 | 92 | 1018.5 |
| 20260830083151 | 68 | 180 | 0.0 | 0.0 | 0.00 | 0.00 | 0.00 | 92 | 1018.9 |
| 20260830082147 | 68 | 180 | 0.0 | 0.0 | 0.00 | 0.00 | 0.00 | 91 | 1019.2 |
| 20260830081146 | 67 | 180 | 0.0 | 0.0 | 0.00 | 0.00 | 0.00 | 91 | 1019.2 |
| 20260830080146 | 67 | 180 | 0.0 | 0.0 | 0.00 | 0.00 | 0.00 | 91 | 1019.1 |
| 20260830075145 | 67 | 180 | 0.0 | 0.0 | 0.00 | 0.00 | 0.00 | 91 | 1018.9 |
| 20260830074146 | 67 | 180 | 0.0 | 0.0 | 0.00 | 0.00 | 0.00 | 91 | 1018.9 |
| 20260830073146 | 67 | 180 | 0.0 | 0.0 | 0.00 | 0.00 | 0.00 | 91 | 1019.1 |
| 20260830072142 | 68 | 180 | 0.0 | 0.0 | 0.00 | 0.00 | 0.00 | 90 | 1019.3 |
| 20260830071145 | 67 | 180 | 0.0 | 0.0 | 0.00 | 0.00 | 0.00 | 90 | 1019.1 |
| 20260830070145 | 67 | 180 | 0.0 | 0.0 | 0.00 | 0.00 | 0.00 | 90 | 1019.2 |
| 20260830065145 | 68 | 180 | 0.0 | 0.0 | 0.00 | 0.00 | 0.00 | 89 | 1019.2 |
| 20260830064145 | 68 | 180 | 0.0 | 0.0 | 0.00 | 0.00 | 0.00 | 89 | 1019.2 |
| 20260830063145 | 68 | 180 | 0.0 | 0.0 | 0.00 | 0.00 | 0.00 | 89 | 1019.0 |
| 20260830062142 | 68 | 180 | 0.0 | 0.0 | 0.00 | 0.00 | 0.00 | 88 | 1019.0 |
| 20260830061141 | 68 | 180 | 0.0 | 0.0 | 0.00 | 0.00 | 0.00 | 88 | 1019.2 |
| 20260830060141 | 68 | 180 | 0.0 | 0.0 | 0.00 | 0.00 | 0.00 | 88 | 1019.2 |
| 20260830055145 | 68 | 180 | 0.0 | 0.0 | 0.00 | 0.00 | 0.00 | 88 | 1019.4 |
| 20260830054152 | 68 | 180 | 0.0 | 2.0 | 0.00 | 0.00 | 0.00 | 86 | 1019.5 |
| 20260830053141 | 68 | 180 | 0.0 | 0.0 | 0.00 | 0.00 | 0.00 | 86 | 1019.5 |
| 20260830052140 | 69 | 180 | 0.0 | 0.0 | 0.00 | 0.00 | 0.00 | 86 | 1019.5 |
| 20260830051137 | 69 | 180 | 0.0 | 0.0 | 0.00 | 0.00 | 0.00 | 85 | 1019.5 |
| 20260830050136 | 69 | 180 | 0.0 | 0.0 | 0.00 | 0.00 | 0.00 | 84 | 1019.5 |
| 20260830045137 | 69 | 180 | 0.0 | 0.0 | 0.00 | 0.00 | 0.00 | 83 | 1019.5 |
| 20260830044137 | 69 | 180 | 0.0 | 0.0 | 0.00 | 0.00 | 0.00 | 81 | 1019.5 |
| 20260830043136 | 70 | 180 | 0.0 | 0.0 | 0.00 | 0.00 | 0.00 | 80 | 1019.6 |
| 20260830042135 | 70 | 180 | 0.0 | 0.0 | 0.00 | 0.00 | 0.00 | 80 | 1019.4 |
| 20260830041141 | 70 | 180 | 0.0 | 0.0 | 0.00 | 0.00 | 0.00 | 79 | 1019.4 |
| 20260830040136 | 70 | 180 | 0.0 | 0.0 | 0.00 | 0.00 | 0.00 | 78 | 1019.3 |
| 20260830035135 | 70 | 180 | 0.0 | 0.0 | 0.00 | 0.00 | 0.00 | 77 | 1019.2 |
| 20260830034130 | 70 | 180 | 0.0 | 0.0 | 0.00 | 0.00 | 0.00 | 78 | 1019.1 |
| 20260830033133 | 70 | 180 | 0.0 | 0.0 | 0.00 | 0.00 | 0.00 | 77 | 1019.0 |
| 20260830032131 | 71 | 180 | 0.0 | 0.0 | 0.00 | 0.00 | 0.00 | 76 | 1019.2 |
| 20260830031131 | 71 | 180 | 0.0 | 0.0 | 0.00 | 0.00 | 0.00 | 74 | 1019.0 |
| 20260830030135 | 71 | 180 | 0.0 | 0.0 | 0.00 | 0.00 | 0.00 | 72 | 1019.2 |
| 20260830025134 | 71 | 180 | 0.0 | 0.0 | 0.00 | 0.00 | 0.00 | 72 | 1019.1 |
| 20260830024130 | 71 | 180 | 0.0 | 0.0 | 0.00 | 0.00 | 0.00 | 72 | 1019.2 |
| 20260830023127 | 72 | 180 | 0.0 | 0.0 | 0.00 | 0.00 | 0.00 | 69 | 1019.1 |
| 20260830022128 | 72 | 180 | 0.0 | 0.0 | 0.00 | 0.00 | 0.00 | 69 | 1019.1 |
| 20260830021131 | 72 | 180 | 0.0 | 0.0 | 0.00 | 0.00 | 0.00 | 68 | 1019.2 |
| 20260830020127 | 73 | 180 | 0.0 | 0.0 | 0.00 | 0.00 | 0.00 | 67 | 1019.0 |
| 20260830015129 | 73 | 180 | 0.0 | 0.0 | 0.00 | 0.00 | 0.00 | 67 | 1019.0 |
| 20260830014126 | 73 | 180 | 0.0 | 4.0 | 0.00 | 0.00 | 0.00 | 66 | 1019.0 |
| 20260830013127 | 73 | 177 | 0.0 | 5.0 | 0.00 | 0.00 | 0.00 | 66 | 1019.0 |
| 20260830012127 | 73 | 182 | 2.0 | 5.0 | 0.00 | 0.00 | 0.00 | 66 | 1018.9 |
| 20260830011126 | 73 | 181 | 4.0 | 9.0 | 0.00 | 0.00 | 0.00 | 66 | 1018.9 |
| 20260830010127 | 74 | 184 | 2.0 | 5.0 | 0.00 | 0.00 | 0.00 | 66 | 1018.8 |